Location: Buckenweiler
(49.0667°N, 10.2500°E)
Time: 06:39:53
(UTC+00:00)

IRS-1C - Pass Details

Date: 18 January 2026
Orbit: 813 x 814 km, 99.0° (Epoch: 17 February)

Event Time Altitude Azimuth Distance (km) Brightness Sun altitude
Rises 06:03:07 0° 16° (NNE) 3,350 7.3 -10.1°
Reaches altitude 10° 06:05:29 10° 19° (NNE) 2,414 6.6 -9.7°
Maximum altitude 06:10:49 72° 104° (ESE) 859 4.5 -8.9°
Drops below altitude 10° 06:16:06 10° 189° (S) 2,396 6.7 -8.1°
Sets 06:18:26 0° 191° (S) 3,323 7.5 -7.7°
